Time,TemperatureF,DewpointF,PressureIn,WindDirection,WindDirectionDegrees,WindSpeedMPH,WindSpeedGustMPH,Humidity,HourlyPrecipIn,Conditions,Clouds,dailyrainin,SolarRadiationWatts/m^2,SoftwareType,DateUTC
2013-09-10 00:09:00,56.7,54.0,30.09,North,360,0.0,0.0,91,0.00,,,0.00,0,weatherlink.com 1.10,2013-09-09 22:09:00,
2013-09-10 00:24:00,56.5,54.0,30.09,North,360,0.0,1.0,90,0.00,,,0.00,0,weatherlink.com 1.10,2013-09-09 22:24:00,
2013-09-10 00:39:00,56.9,54.0,30.09,WNW,288,0.0,0.0,91,0.00,,,0.00,0,weatherlink.com 1.10,2013-09-09 22:39:00,
2013-09-10 00:54:00,57.2,55.0,30.10,WNW,290,0.0,0.0,92,0.00,,,0.00,0,weatherlink.com 1.10,2013-09-09 22:54:00,
2013-09-10 01:09:00,57.1,55.0,30.10,WNW,290,0.0,1.0,91,0.00,,,0.00,0,weatherlink.com 1.10,2013-09-09 23:09:00,
2013-09-10 01:24:00,56.9,55.0,30.09,North,360,0.0,0.0,92,0.00,,,0.00,0,weatherlink.com 1.10,2013-09-09 23:24:00,
2013-09-10 01:39:00,56.7,54.0,30.09,WNW,291,0.0,0.0,91,0.00,,,0.00,0,weatherlink.com 1.10,2013-09-09 23:39:00,
2013-09-10 01:54:00,56.4,54.0,30.09,North,360,0.0,1.0,92,0.00,,,0.00,0,weatherlink.com 1.10,2013-09-09 23:54:00,
2013-09-10 02:09:00,56.4,54.0,30.09,North,360,0.0,1.0,92,0.00,,,0.00,0,weatherlink.com 1.10,2013-09-10 00:09:00,
2013-09-10 02:24:00,56.1,54.0,30.09,WNW,291,0.0,2.0,92,0.00,,,0.00,0,weatherlink.com 1.10,2013-09-10 00:24:00,
2013-09-10 02:39:00,55.7,54.0,30.09,WNW,290,0.0,0.0,92,0.00,,,0.00,0,weatherlink.com 1.10,2013-09-10 00:39:00,
2013-09-10 02:54:00,55.4,53.0,30.09,WNW,289,0.0,0.0,92,0.00,,,0.00,0,weatherlink.com 1.10,2013-09-10 00:54:00,
2013-09-10 03:09:00,55.2,53.0,30.09,WNW,290,0.0,0.0,92,0.00,,,0.00,0,weatherlink.com 1.10,2013-09-10 01:09:00,
2013-09-10 03:25:00,55.0,53.0,30.09,WNW,289,0.0,1.0,92,0.00,,,0.00,0,weatherlink.com 1.10,2013-09-10 01:25:00,
2013-09-10 03:40:00,54.8,53.0,30.09,North,360,0.0,0.0,92,0.00,,,0.00,0,weatherlink.com 1.10,2013-09-10 01:40:00,
2013-09-10 03:55:00,54.5,52.0,30.09,WNW,290,0.0,0.0,92,0.00,,,0.00,0,weatherlink.com 1.10,2013-09-10 01:55:00,
2013-09-10 04:10:00,54.3,52.0,30.09,WNW,290,0.0,1.0,92,0.00,,,0.00,0,weatherlink.com 1.10,2013-09-10 02:10:00,
2013-09-10 04:25:00,54.4,52.0,30.08,WNW,292,0.0,0.0,92,0.00,,,0.00,0,weatherlink.com 1.10,2013-09-10 02:25:00,
2013-09-10 04:40:00,54.1,52.0,30.07,North,360,0.0,0.0,92,0.00,,,0.00,0,weatherlink.com 1.10,2013-09-10 02:40:00,
2013-09-10 04:55:00,53.8,52.0,30.08,WNW,290,0.0,0.0,92,0.00,,,0.00,0,weatherlink.com 1.10,2013-09-10 02:55:00,
2013-09-10 05:10:00,53.7,52.0,30.08,WNW,290,0.0,2.0,93,0.00,,,0.00,0,weatherlink.com 1.10,2013-09-10 03:10:00,
2013-09-10 05:25:00,53.7,52.0,30.08,WNW,286,0.0,1.0,93,0.00,,,0.00,0,weatherlink.com 1.10,2013-09-10 03:25:00,
2013-09-10 05:40:00,53.5,52.0,30.08,WNW,290,0.0,0.0,93,0.00,,,0.00,0,weatherlink.com 1.10,2013-09-10 03:40:00,
2013-09-10 05:55:00,53.1,51.0,30.09,WNW,290,0.0,0.0,92,0.00,,,0.00,0,weatherlink.com 1.10,2013-09-10 03:55:00,
2013-09-10 06:10:00,52.9,51.0,30.09,WNW,290,0.0,0.0,93,0.01,,,0.01,0,weatherlink.com 1.10,2013-09-10 04:10:00,
2013-09-10 06:25:00,52.9,51.0,30.09,WNW,290,0.0,1.0,93,0.01,,,0.01,5,weatherlink.com 1.10,2013-09-10 04:25:00,
2013-09-10 06:40:00,53.5,52.0,30.09,WNW,292,0.0,0.0,94,0.01,,,0.01,12,weatherlink.com 1.10,2013-09-10 04:40:00,
2013-09-10 06:55:00,54.4,53.0,30.09,WNW,289,0.0,0.0,94,0.01,,,0.01,28,weatherlink.com 1.10,2013-09-10 04:55:00,
2013-09-10 07:10:00,55.4,54.0,30.11,WNW,290,0.0,0.0,94,0.00,,,0.01,39,weatherlink.com 1.10,2013-09-10 05:10:00,
2013-09-10 07:25:00,55.8,54.0,30.11,WNW,292,0.0,2.0,94,0.00,,,0.01,46,weatherlink.com 1.10,2013-09-10 05:25:00,
2013-09-10 07:40:00,55.8,54.0,30.10,WNW,290,0.0,0.0,94,0.00,,,0.01,37,weatherlink.com 1.10,2013-09-10 05:40:00,
2013-09-10 07:55:00,55.9,54.0,30.11,North,360,0.0,2.0,94,0.00,,,0.01,44,weatherlink.com 1.10,2013-09-10 05:55:00,
2013-09-10 08:10:00,56.3,55.0,30.11,WNW,287,0.0,2.0,94,0.00,,,0.01,67,weatherlink.com 1.10,2013-09-10 06:10:00,
2013-09-10 08:25:00,56.6,55.0,30.11,NNW,344,0.0,3.0,94,0.00,,,0.01,88,weatherlink.com 1.10,2013-09-10 06:25:00,
2013-09-10 08:40:00,57.2,56.0,30.11,NNW,344,2.0,3.0,94,0.00,,,0.01,83,weatherlink.com 1.10,2013-09-10 06:40:00,
2013-09-10 09:25:00,57.6,56.0,30.11,NNW,346,0.0,2.0,94,0.00,,,0.01,171,weatherlink.com 1.10,2013-09-10 07:25:00,
2013-09-10 09:40:00,57.9,56.0,30.10,NNW,344,2.0,3.0,94,0.00,,,0.01,128,weatherlink.com 1.10,2013-09-10 07:40:00,
2013-09-10 10:10:00,59.2,57.0,30.09,North,355,1.0,4.0,93,0.00,,,0.01,167,weatherlink.com 1.10,2013-09-10 08:10:00,
2013-09-10 10:40:00,61.3,57.0,30.09,North,360,1.0,3.0,87,0.00,,,0.01,225,weatherlink.com 1.10,2013-09-10 08:40:00,
2013-09-10 10:55:00,60.8,57.0,30.09,WSW,242,0.0,3.0,87,0.00,,,0.01,197,weatherlink.com 1.10,2013-09-10 08:55:00,
2013-09-10 11:10:00,62.4,58.0,30.10,WSW,254,2.0,2.0,85,0.00,,,0.01,207,weatherlink.com 1.10,2013-09-10 09:10:00,
2013-09-10 11:25:00,61.8,58.0,30.09,NNE,33,0.0,3.0,86,0.00,,,0.01,190,weatherlink.com 1.10,2013-09-10 09:25:00,
2013-09-10 11:40:00,62.1,57.0,30.10,SSE,160,0.0,2.0,84,0.00,,,0.01,236,weatherlink.com 1.10,2013-09-10 09:40:00,
2013-09-10 11:56:00,63.6,58.0,30.10,South,181,0.0,3.0,82,0.00,,,0.01,257,weatherlink.com 1.10,2013-09-10 09:56:00,
2013-09-10 12:11:00,63.4,58.0,30.09,SE,142,0.0,4.0,81,0.00,,,0.01,223,weatherlink.com 1.10,2013-09-10 10:11:00,
2013-09-10 12:26:00,64.1,58.0,30.09,SW,215,3.0,6.0,80,0.00,,,0.01,237,weatherlink.com 1.10,2013-09-10 10:26:00,
2013-09-10 12:41:00,64.2,58.0,30.09,SSE,147,2.0,5.0,81,0.00,,,0.01,207,weatherlink.com 1.10,2013-09-10 10:41:00,
2013-09-10 12:56:00,64.0,58.0,30.08,SSW,202,3.0,6.0,81,0.00,,,0.01,192,weatherlink.com 1.10,2013-09-10 10:56:00,
2013-09-10 13:11:00,64.7,58.0,30.08,SW,235,1.0,5.0,79,0.00,,,0.01,304,weatherlink.com 1.10,2013-09-10 11:11:00,
2013-09-10 13:26:00,66.7,59.0,30.07,SW,236,2.0,5.0,77,0.00,,,0.01,341,weatherlink.com 1.10,2013-09-10 11:26:00,
2013-09-10 13:41:00,66.7,59.0,30.07,South,180,2.0,4.0,77,0.00,,,0.01,359,weatherlink.com 1.10,2013-09-10 11:41:00,
2013-09-10 13:56:00,68.2,59.0,30.06,NE,38,1.0,3.0,72,0.00,,,0.01,747,weatherlink.com 1.10,2013-09-10 11:56:00,
2013-09-10 14:11:00,69.1,59.0,30.05,ESE,123,2.0,5.0,70,0.00,,,0.01,519,weatherlink.com 1.10,2013-09-10 12:11:00,
2013-09-10 14:25:00,69.6,59.0,30.05,NE,34,4.0,8.0,69,0.00,,,0.01,617,weatherlink.com 1.10,2013-09-10 12:25:00,
2013-09-10 14:41:00,69.9,59.0,30.04,SSW,201,0.0,5.0,69,0.00,,,0.01,503,weatherlink.com 1.10,2013-09-10 12:41:00,
2013-09-10 14:56:00,70.1,58.0,30.04,NE,36,3.0,3.0,65,0.00,,,0.01,552,weatherlink.com 1.10,2013-09-10 12:56:00,
2013-09-10 15:11:00,71.1,58.0,30.03,SW,221,0.0,4.0,64,0.00,,,0.01,508,weatherlink.com 1.10,2013-09-10 13:11:00,
2013-09-10 15:26:00,70.7,57.0,30.02,SSE,168,0.0,6.0,63,0.00,,,0.01,91,weatherlink.com 1.10,2013-09-10 13:26:00,
2013-09-10 15:41:00,70.4,58.0,30.02,SSE,165,3.0,5.0,64,0.00,,,0.01,464,weatherlink.com 1.10,2013-09-10 13:41:00,
2013-09-10 15:56:00,70.4,56.0,30.01,SE,130,2.0,5.0,61,0.00,,,0.01,320,weatherlink.com 1.10,2013-09-10 13:56:00,
2013-09-10 16:11:00,70.2,56.0,30.01,South,178,1.0,6.0,61,0.00,,,0.01,70,weatherlink.com 1.10,2013-09-10 14:11:00,
2013-09-10 16:26:00,70.3,56.0,30.00,South,173,1.0,7.0,61,0.00,,,0.01,62,weatherlink.com 1.10,2013-09-10 14:26:00,
2013-09-10 16:41:00,70.5,57.0,30.01,NNE,25,0.0,5.0,63,0.00,,,0.01,111,weatherlink.com 1.10,2013-09-10 14:41:00,
2013-09-10 16:56:00,70.0,57.0,30.01,SSE,154,2.0,5.0,63,0.00,,,0.01,258,weatherlink.com 1.10,2013-09-10 14:56:00,
2013-09-10 17:11:00,69.6,56.0,30.01,SSW,200,0.0,4.0,63,0.00,,,0.01,72,weatherlink.com 1.10,2013-09-10 15:11:00,
2013-09-10 17:26:00,69.5,57.0,30.00,WSW,240,2.0,5.0,65,0.00,,,0.01,51,weatherlink.com 1.10,2013-09-10 15:26:00,
2013-09-10 17:41:00,69.4,57.0,29.99,East,92,0.0,5.0,66,0.00,,,0.01,63,weatherlink.com 1.10,2013-09-10 15:41:00,
2013-09-10 17:56:00,69.2,58.0,29.99,South,187,3.0,4.0,67,0.00,,,0.01,33,weatherlink.com 1.10,2013-09-10 15:56:00,
2013-09-10 18:11:00,68.8,58.0,29.99,South,173,2.0,4.0,69,0.00,,,0.01,25,weatherlink.com 1.10,2013-09-10 16:11:00,
2013-09-10 18:26:00,68.4,58.0,29.98,South,186,1.0,5.0,69,0.00,,,0.01,19,weatherlink.com 1.10,2013-09-10 16:26:00,
2013-09-10 18:41:00,68.1,58.0,29.99,North,360,3.0,5.0,71,0.00,,,0.01,12,weatherlink.com 1.10,2013-09-10 16:41:00,
2013-09-10 18:56:00,67.8,58.0,29.99,SSE,160,4.0,6.0,72,0.00,,,0.01,5,weatherlink.com 1.10,2013-09-10 16:56:00,
2013-09-10 19:11:00,67.5,59.0,29.98,NE,36,0.0,5.0,73,0.00,,,0.01,0,weatherlink.com 1.10,2013-09-10 17:11:00,
2013-09-10 19:26:00,67.1,59.0,29.97,NE,40,3.0,7.0,75,0.00,,,0.01,0,weatherlink.com 1.10,2013-09-10 17:26:00,
2013-09-10 19:42:00,66.3,59.0,29.98,WSW,257,0.0,3.0,77,0.00,,,0.01,0,weatherlink.com 1.10,2013-09-10 17:42:00,
2013-09-10 19:56:00,65.8,59.0,29.98,NE,35,0.0,3.0,78,0.00,,,0.01,0,weatherlink.com 1.10,2013-09-10 17:56:00,
2013-09-10 20:11:00,65.3,59.0,29.98,NNE,12,2.0,3.0,80,0.00,,,0.01,0,weatherlink.com 1.10,2013-09-10 18:11:00,
2013-09-10 20:26:00,64.9,59.0,29.98,NE,45,1.0,4.0,81,0.00,,,0.01,0,weatherlink.com 1.10,2013-09-10 18:26:00,
2013-09-10 20:41:00,64.6,59.0,29.98,WSW,237,0.0,3.0,82,0.00,,,0.01,0,weatherlink.com 1.10,2013-09-10 18:41:00,
2013-09-10 20:56:00,64.2,59.0,29.98,South,175,0.0,4.0,82,0.00,,,0.01,0,weatherlink.com 1.10,2013-09-10 18:56:00,
2013-09-10 21:11:00,63.9,59.0,29.98,NNE,24,0.0,4.0,83,0.00,,,0.01,0,weatherlink.com 1.10,2013-09-10 19:11:00,
2013-09-10 21:26:00,63.7,59.0,29.97,NE,49,0.0,5.0,83,0.00,,,0.01,0,weatherlink.com 1.10,2013-09-10 19:26:00,
2013-09-10 21:41:00,63.3,58.0,29.98,SSE,150,0.0,7.0,83,0.00,,,0.01,0,weatherlink.com 1.10,2013-09-10 19:41:00,
2013-09-10 21:56:00,63.0,58.0,29.99,SW,223,1.0,3.0,84,0.00,,,0.01,0,weatherlink.com 1.10,2013-09-10 19:56:00,
2013-09-10 22:11:00,62.7,58.0,29.98,North,360,0.0,3.0,85,0.00,,,0.01,0,weatherlink.com 1.10,2013-09-10 20:11:00,
2013-09-10 22:26:00,62.4,58.0,29.98,NNE,33,0.0,1.0,85,0.00,,,0.01,0,weatherlink.com 1.10,2013-09-10 20:26:00,
2013-09-10 22:41:00,62.2,58.0,29.98,WSW,254,0.0,1.0,85,0.00,,,0.01,0,weatherlink.com 1.10,2013-09-10 20:41:00,
2013-09-10 22:56:00,62.1,58.0,29.98,WSW,244,0.0,1.0,86,0.00,,,0.01,0,weatherlink.com 1.10,2013-09-10 20:56:00,
2013-09-10 23:12:00,62.1,58.0,29.97,WSW,243,0.0,1.0,86,0.00,,,0.01,0,weatherlink.com 1.10,2013-09-10 21:12:00,
2013-09-10 23:27:00,62.1,58.0,29.97,SSW,198,0.0,3.0,86,0.00,,,0.01,0,weatherlink.com 1.10,2013-09-10 21:27:00,
2013-09-10 23:57:00,62.2,58.0,29.98,SW,232,3.0,6.0,87,0.00,,,0.01,0,weatherlink.com 1.10,2013-09-10 21:57:00,